Location: C?lug?r
(46.4167°N, 22.4833°E)
Time: 20:32:15
(UTC+00:00)

Daily predictions for brighter satellites

Satellite Brightness Start Highest point End
(mag) Time Altitude Azimuth Time Altitude Azimuth Time Altitude Azimuth
BREEZE-M DEB (TANK) 3.6 16:23:15 10° WNW 16:26:55 83° NNE 16:40:38 10° ESE
H-2A R/B 2.2 16:38:34 10° S 16:43:38 81° WSW 16:48:53 10° NNW
ISS -2.4 16:41:44 10° WNW 16:44:49 33° N 16:47:55 10° ENE
BREEZE-M DEB (TANK) 2.2 16:45:31 10° WNW 16:47:40 50° SSW 16:49:36 10° SE
USA 276 3.0 16:45:07 10° WNW 16:48:08 41° N 16:51:07 10° ENE
ARGOS 3.1 16:43:17 10° SSE 16:48:37 72° ENE 16:54:00 10° N
Nadezhda 3 Rocket 4.3 16:43:51 10° N 16:49:46 46° ENE 16:55:40 10° SSE
IRAS Rocket 4.3 16:47:43 10° NNE 16:53:20 66° ESE 16:58:54 10° S
Atlas Centaur 2 4.4 16:47:10 10° SW 16:53:25 25° S 16:59:58 10° SE
Landsat 5 3.6 16:49:34 10° N 16:53:31 78° WNW 16:57:36 10° SSW
Cosmos 1943 Rocket 2.3 16:52:04 10° SSW 16:57:39 83° WNW 17:03:20 10° NNE
Cosmos 1975 Rocket 3.8 16:56:40 10° N 17:00:44 33° ENE 17:04:46 10° SE
SKYMED 2 4.0 16:57:14 10° N 17:01:34 68° WNW 17:05:52 10° SSW
Cosmos 1503 Rocket 4.2 16:57:26 10° SSW 17:02:38 76° WNW 17:07:49 10° NNE
Cosmos 1346 Rocket 3.2 17:01:47 10° N 17:05:39 44° ENE 17:09:30 10° SSE
IRS-1C Rocket 4.2 17:00:55 10° SE 17:06:02 55° ENE 17:11:10 10° N
BREEZE-M DEB (TANK) 4.0 16:55:03 10° WSW 17:06:08 87° NNW 17:09:28 11° ENE
CZ-2C R/B 2.8 17:01:53 10° NNE 17:07:29 89° W 17:13:06 10° SSW
Cosmos 1777 Rocket 4.1 17:03:14 10° S 17:08:21 56° ESE 17:13:28 10° NNE
SL-08 RB Rocket 3.6 17:07:46 10° SSE 17:12:14 84° ENE 17:16:45 10° NNW
Okean-O 2.8 17:09:22 10° SE 17:13:37 49° ENE 17:17:55 10° N
Cosmos 2074 Rocket 4.1 17:07:21 10° S 17:13:38 85° W 17:19:58 10° N
Meteor 1-12 Rocket 4.5 17:10:03 10° S 17:15:51 53° E 17:21:37 10° NNE
SeaSat 1 3.7 17:13:33 14° E 17:16:41 25° NE 17:20:40 10° N
USA 305 3.8 17:14:22 10° NW 17:18:18 36° NNE 17:21:18 15° ENE
Cosmos 1908 Rocket 3.8 17:15:21 10° SSW 17:19:49 79° W 17:24:18 10° N
CZ-4B R/B 1.9 17:17:51 10° NNE 17:20:41 32° E 17:23:33 10° SSE
Cosmos 2369 Rocket 2.1 17:15:35 10° SSW 17:21:14 75° ESE 17:26:52 10° NNE
DMSP B5D1-3 4.4 17:19:03 10° NNE 17:24:09 68° ESE 17:29:14 10° S
Cosmos 1833 4.3 17:19:35 10° NNW 17:25:08 56° ENE 17:30:12 12° SE
Cosmos 1674 2.7 17:24:47 10° NNW 17:28:30 78° W 17:32:14 10° S
CSL-04 Debris 4.2 17:23:57 10° SSE 17:29:15 62° ENE 17:34:35 10° N
Resurs 01 Rocket 3.6 17:29:12 12° ENE 17:29:22 12° ENE 17:31:01 10° NE
Cosmos 1656 Rocket 3.6 17:26:14 10° SSW 17:31:43 63° ESE 17:37:09 10° NNE
COSMOS 2455 4.4 17:26:42 10° NW 17:32:08 35° WSW 17:37:31 10° S
Cosmos 1626 2.0 17:28:47 10° N 17:32:29 72° E 17:36:10 10° SSE
SJ 16-02 1.2 17:28:43 10° S 17:33:06 71° ESE 17:37:32 10° NNE
Cosmos 2341 Rocket 4.2 17:27:13 10° SSE 17:33:15 49° E 17:39:21 10° NNE
YAOGAN 1 3.1 17:29:04 10° S 17:33:20 63° WSW 17:37:39 10° NNW
USA 307 3.7 17:30:33 10° NW 17:34:34 39° NNE 17:36:54 21° ENE
NOSS 3-2 (C) 4.2 17:35:25 10° SSE 17:39:48 24° ESE 17:42:05 19° ENE
Cosmos 2218 Rocket 4.5 17:34:23 10° SSE 17:39:55 36° E 17:45:31 10° NNE
Okean O Rocket 4.2 17:36:38 10° SSW 17:40:06 23° W 17:43:35 10° NW
CENTAUR R/B 2.9 17:37:28 10° S 17:42:39 36° ESE 17:48:42 10° NE
PSLV R/B 4.1 17:38:57 10° NNE 17:42:57 46° E 17:46:54 10° S
Lacrosse 5 rocket 3.5 17:39:12 10° WNW 17:42:59 26° SW 17:46:38 10° S
USA 215 3.4 17:39:55 21° ESE 17:44:33 66° NNE 17:51:02 10° NW
USA 306 3.5 17:42:31 10° NW 17:46:36 45° NNE 17:48:22 28° ENE
MetOp-A 4.1 17:41:42 10° SSE 17:47:03 84° ENE 17:52:26 10° NNW
Meteor 2-20 4.5 17:41:11 10° N 17:47:13 57° ENE 17:52:47 12° SSE
SL-27 R/B 3.0 17:44:33 10° N 17:47:39 35° ENE 17:47:44 35° ENE
USA 186 1.8 17:47:37 45° E 17:47:56 48° ENE 17:51:01 10° N
Cosmos 1805 3.2 17:45:43 10° S 17:49:35 83° W 17:53:29 10° N
USA 308 3.5 17:50:03 10° NW 17:54:10 46° NNE 17:55:39 32° ENE
SL-14 R/B 3.1 17:50:56 10° N 17:54:54 76° E 17:57:15 23° SSE
Cosmos 962 Rocket 4.4 17:49:02 10° S 17:55:12 80° E 18:01:21 10° N
Cosmos 990 Rocket 4.4 17:50:38 10° SSE 17:55:19 37° ESE 18:00:04 10° NE
Cosmos 1184 Rocket 3.6 17:54:00 10° NNW 17:57:07 50° W 17:59:58 11° S
OBJECT-B 0.6 17:56:56 57° SE 17:57:21 67° ENE 18:00:31 10° N
Cosmos 1315 Rocket 2.8 17:54:46 10° SSW 17:58:45 83° W 18:02:50 10° N
ATLAS CENTAUR R/B 4.4 17:56:37 10° WNW 17:59:35 17° WSW 18:02:35 10° SSW
Cosmos 2263 4.3 17:54:03 10° SSW 17:59:39 78° WNW 18:05:18 10° NNE
EO 1 Delta rocket 4.4 17:59:26 31° SE 18:01:26 48° ENE 18:07:02 10° N
SJ-6B 2.9 18:00:27 37° SE 18:01:51 61° ENE 18:05:53 10° N
Okean 2 Rocket 3.1 18:01:07 23° SSE 18:03:38 52° E 18:07:56 10° NNE
H-2A R/B 3.3 18:00:10 10° N 18:04:07 41° WNW 18:07:58 10° SW
Cosmos 1733 3.6 18:00:50 10° SSW 18:04:36 62° WNW 18:08:24 10° N
Ariane Rocket 3.6 18:05:13 35° E 18:05:58 37° ENE 18:10:37 10° N
USA 238 DEB 3.7 18:03:59 10° SSW 18:10:11 51° ESE 18:16:43 10° NE
USA 238 3.7 18:04:07 10° SSW 18:10:18 50° ESE 18:16:49 10° NE
CZ-4 R/B 3.8 18:08:58 10° SW 18:11:56 21° W 18:14:55 10° NW
CSL-04 Rocket 4.0 18:07:34 10° S 18:12:54 65° WSW 18:18:21 10° NNW
Cosmos 1025 Rocket 3.2 18:10:46 10° NNW 18:15:05 69° W 18:17:55 21° S
Meteor 2-20 Rocket 4.3 18:09:36 10° N 18:15:43 68° E 18:18:54 29° SSE
Meteor 1-15 Rocket 4.3 18:10:28 10° SSW 18:16:02 78° WNW 18:21:41 10° N
Cosmos 158 Rocket 4.3 18:11:58 10° NNW 18:16:54 59° WSW 18:20:13 20° S
NOSS 3-2 (A) 3.2 18:12:18 10° SSW 18:17:49 77° SE 18:24:14 10° NE
IRS-1A Rocket 4.5 18:16:59 39° ESE 18:18:52 56° ENE 18:24:38 10° N
Sich 1 Rocket 3.7 18:14:37 10° SSW 18:19:09 78° W 18:23:41 10° N
IGS 5A 4.5 18:21:05 32° NE 18:21:05 32° NE 18:23:55 10° N
Cosmos 1536 Rocket 3.4 18:15:45 10° N 18:20:09 63° E 18:20:19 62° E
Meteor 1-22 Rocket 4.1 18:14:58 10° S 18:20:32 71° E 18:26:23 10° NNE
Cosmos 1766 3.8 18:17:28 10° SSW 18:21:20 57° WNW 18:25:11 10° N
COSMOS 2487 4.4 18:18:34 10° N 18:19:51 19° NNE 18:19:51 19° NNE
ISS -2.8 18:18:53 10° WNW 18:21:46 42° N 18:21:46 42° N
USA 276 3.2 18:21:27 10° WNW 18:23:47 43° NW 18:23:47 43° NW
SL-8 Rocket 4.0 18:19:29 10° S 18:25:47 88° W 18:32:09 10° N
Cosmos 1898 Rocket 4.1 18:32:18 39° NE 18:32:18 39° NE 18:35:50 10° NNE
Meteor 2-5 Rocket 3.8 18:25:13 10° NNW 18:30:46 75° W 18:34:08 25° S
Cosmos 1867 4.4 18:25:52 10° NNW 18:30:55 35° NE 18:31:22 35° NE
Cosmos 2151 Rocket 3.5 18:37:44 64° SSW 18:38:24 84° W 18:42:54 10° N
USA 281 4.5 18:35:03 10° NE 18:37:43 23° NE 18:37:43 23° NE
Atlas Centaur 2 4.4 18:35:52 10° WSW 18:41:57 22° SSW 18:43:54 21° S
Cosmos 2297 Rocket 3.1 18:39:33 10° NNW 18:44:16 33° NE 18:44:16 33° NE
Cosmos 1727 Rocket 3.9 18:40:41 10° N 18:47:02 80° E 18:48:27 56° SSE
Helios 1A Rocket 3.4 18:48:08 60° NW 18:48:08 60° NW 18:51:37 10° NNW
SL-08 R/B 4.3 18:48:25 65° ESE 18:48:42 66° E 18:54:48 10° NNE
SeaSat 1 2.7 18:53:20 58° SSW 18:53:52 62° WSW 18:58:46 10° NW
USA 305 3.8 18:54:15 10° WNW 18:57:20 46° WNW 18:57:20 46° WNW
SPOT 3 Rocket 4.1 18:59:53 47° NNE 18:59:53 47° NNE 19:03:48 10° N
BREEZE-M R/B 3.2 18:56:59 10° WNW 18:59:39 55° NW 18:59:39 55° NW
Resurs 01 Rocket 2.7 19:06:47 40° NNW 19:06:47 40° NNW 19:09:37 10° NNW
Resurs 1-3 4.4 19:05:35 48° W 19:05:35 48° W 19:09:29 10° NNW
Cosmos 2369 Rocket 4.5 19:01:29 10° W 19:05:51 22° NW 19:10:14 10° N
Cosmos 2227 Rocket 3.3 19:02:23 10° NNW 19:06:29 33° NNE 19:06:29 33° NNE
SJ 16-02 4.4 19:09:34 10° W 19:12:13 15° NW 19:14:51 10° NNW
USA 307 4.5 19:10:29 10° WNW 19:12:58 33° WNW 19:12:58 33° WNW
Cosmos 2263 Rocket 4.4 19:15:06 10° N 19:17:05 13° NNE 19:17:05 13° NNE
Cosmos 1680 Rocket 4.3 19:12:45 10° NNW 19:17:47 46° WSW 19:17:55 46° WSW
USA 215 3.8 19:27:17 45° SW 19:27:43 46° SW 19:34:00 10° WNW
NOSS 3-2 (C) 3.6 19:24:22 10° SW 19:34:13 22° NNE 19:36:31 10° NE
Gbstr 26 Del rocket 4.4 19:24:05 10° WSW 19:31:45 87° NNW 19:32:34 75° NE
CENTAUR R/B 3.2 19:27:06 10° WSW 19:32:59 54° NW 19:40:06 10° NE
CZ-3 Stage 3 4.4 19:19:33 10° WSW 19:33:25 27° SSW 19:33:33 27° SSW
Terra 4.2 19:38:50 16° N 19:38:50 16° N 19:39:53 10° N
Cosmos 2219 4.3 19:40:08 10° NNW 19:43:37 38° N 19:43:37 38° N
USA 281 4.1 20:19:27 10° NNE 20:24:32 44° NNW 20:24:32 44° NNW
Cosmos 2297 Rocket 4.1 20:23:29 10° NW 20:26:04 26° NW 20:26:04 26° NW
Cosmos 2227 Rocket 4.4 20:46:26 10° NW 20:48:18 20° NW 20:48:18 20° NW
Cosmos 2344 4.5 21:09:12 10° NW 21:16:57 59° NNE 21:16:57 59° NNE
